When you browse on this site, cookies collect data to enhance your experience and personalize the content and advertising you see.
Visit our Privacy Policy to learn more. By continuing to use the site, you agree to this use of cookies and data.
  • In Hungary
  • List of Countries
  • For 7 days
  • Water Temperature
  • Satellite Maps
  • Weather Map
  • News
  • Weather Widgets
  • user-avatar
    Login

    Hourly Weather Chopda

    Today, 21 January, Monday

    Time Temperature Precipitation Wind Pressure Humidity
    00:00 +25°C° 0 mm 3 mps 743 mmHg 25%
    01:00 +24°C° 0 mm 2 mps 743 mmHg 26%
    02:00 +23°C° 0 mm 2 mps 743 mmHg 27%
    03:00 +23°C° 0 mm 2 mps 743 mmHg 27%
    04:00 +23°C° 0 mm 2 mps 743 mmHg 28%
    05:00 +22°C° 0 mm 1 mps 743 mmHg 27%
    06:00 +23°C° 0 mm 2 mps 743 mmHg 27%
    07:00 +24°C° 0 mm 2 mps 743 mmHg 26%
    08:00 +25°C° 0 mm 2 mps 744 mmHg 26%
    09:00 +27°C° 0 mm 2 mps 744 mmHg 23%
    10:00 +29°C° 0 mm 3 mps 743 mmHg 21%
    11:00 +31°C° 0 mm 3 mps 744 mmHg 18%
    12:00 +33°C° 0 mm 4 mps 743 mmHg 17%
    13:00 +34°C° 0 mm 4 mps 742 mmHg 16%
    14:00 +36°C° 0 mm 5 mps 741 mmHg 15%
    15:00 +35°C° 0 mm 4 mps 741 mmHg 16%
    16:00 +35°C° 0 mm 3 mps 741 mmHg 17%
    17:00 +34°C° 0 mm 2 mps 740 mmHg 19%
    18:00 +31°C° 0 mm 3 mps 740 mmHg 22%
    19:00 +29°C° 0 mm 3 mps 741 mmHg 24%
    20:00 +28°C° 0 mm 4 mps 741 mmHg 26%
    21:00 +27°C° 0 mm 4 mps 741 mmHg 26%
    22:00 +26°C° 0 mm 3 mps 741 mmHg 27%
    23:00 +25°C° 0 mm 3 mps 742 mmHg 27%

    Tomorrow, 22 January, Tuesday

    Time Temperature Precipitation Wind Pressure Humidity
    00:00 +24°C° 0 mm 3 mps 742 mmHg 30%
    01:00 +24°C° 0 mm 3 mps 741 mmHg 32%
    02:00 +22°C° 0 mm 3 mps 741 mmHg 34%
    03:00 +21°C° 0 mm 3 mps 741 mmHg 43%
    04:00 +20°C° 0 mm 3 mps 742 mmHg 51%
    05:00 +20°C° 0 mm 2 mps 742 mmHg 60%
    06:00 +20°C° 0 mm 2 mps 742 mmHg 62%
    07:00 +21°C° 0 mm 2 mps 743 mmHg 63%
    08:00 +21°C° 0 mm 2 mps 743 mmHg 65%
    09:00 +24°C° 0 mm 3 mps 743 mmHg 57%
    10:00 +26°C° 0 mm 3 mps 743 mmHg 49%
    11:00 +27°C° 0 mm 3 mps 744 mmHg 41%
    12:00 +28°C° 0 mm 3 mps 743 mmHg 37%
    13:00 +29°C° 0 mm 3 mps 742 mmHg 33%
    14:00 +30°C° 0 mm 3 mps 742 mmHg 29%
    15:00 +30°C° 0 mm 3 mps 741 mmHg 28%
    16:00 +30°C° 0 mm 3 mps 741 mmHg 27%
    17:00 +30°C° 0 mm 2 mps 741 mmHg 27%
    18:00 +29°C° 0 mm 3 mps 742 mmHg 34%
    19:00 +27°C° 0 mm 4 mps 742 mmHg 42%
    20:00 +25°C° 0 mm 4 mps 743 mmHg 50%
    21:00 +25°C° 0 mm 4 mps 743 mmHg 53%
    22:00 +24°C° 0 mm 3 mps 743 mmHg 56%
    23:00 +23°C° 0 mm 2 mps 743 mmHg 59%

    Day after tomorrow, 23 January, Wednesday

    Time Temperature Precipitation Wind Pressure Humidity
    00:00 +23°C° 0 mm 2 mps 743 mmHg 60%
    01:00 +21°C° 0 mm 2 mps 743 mmHg 62%
    02:00 +21°C° 0 mm 2 mps 743 mmHg 63%
    03:00 +20°C° 0 mm 2 mps 743 mmHg 66%
    04:00 +20°C° 0 mm 3 mps 743 mmHg 69%
    05:00 +19°C° 0 mm 3 mps 743 mmHg 72%
    06:00 +20°C° 0 mm 3 mps 743 mmHg 72%
    07:00 +20°C° 0 mm 3 mps 744 mmHg 72%
    08:00 +21°C° 0 mm 3 mps 744 mmHg 72%
    09:00 +22°C° 0 mm 3 mps 745 mmHg 61%
    10:00 +25°C° 0 mm 3 mps 745 mmHg 51%
    11:00 +27°C° 0 mm 3 mps 745 mmHg 40%
    12:00 +28°C° 0 mm 3 mps 744 mmHg 36%
    13:00 +29°C° 0 mm 3 mps 743 mmHg 31%
    14:00 +29°C° 0 mm 4 mps 742 mmHg 27%
    15:00 +29°C° 0 mm 3 mps 742 mmHg 26%
    16:00 +29°C° 0 mm 3 mps 742 mmHg 26%
    17:00 +29°C° 0 mm 3 mps 742 mmHg 25%
    18:00 +27°C° 0 mm 2 mps 742 mmHg 27%
    19:00 +26°C° 0 mm 2 mps 743 mmHg 29%
    20:00 +24°C° 0 mm 1 mps 744 mmHg 31%
    21:00 +24°C° 0 mm 2 mps 744 mmHg 33%
    22:00 +24°C° 0 mm 2 mps 744 mmHg 35%
    23:00 +22°C° 0 mm 3 mps 744 mmHg 37%

    24 January, Thursday

    Time Temperature Precipitation Wind Pressure Humidity
    00:00 +22°C° 0 mm 3 mps 744 mmHg 38%
    01:00 +21°C° 0 mm 3 mps 744 mmHg 40%
    02:00 +20°C° 0 mm 3 mps 744 mmHg 41%
    03:00 +20°C° 0 mm 3 mps 744 mmHg 40%
    04:00 +19°C° 0 mm 2 mps 744 mmHg 38%
    05:00 +19°C° 0 mm 2 mps 744 mmHg 37%
    06:00 +20°C° 0 mm 2 mps 744 mmHg 35%
    07:00 +20°C° 0 mm 2 mps 745 mmHg 34%
    08:00 +21°C° 0 mm 2 mps 746 mmHg 32%
    09:00 +24°C° 0 mm 2 mps 746 mmHg 30%
    10:00 +26°C° 0 mm 2 mps 746 mmHg 27%
    11:00 +28°C° 0 mm 2 mps 746 mmHg 24%
    12:00 +28°C° 0 mm 1 mps 745 mmHg 23%
    13:00 +29°C° 0 mm 1 mps 744 mmHg 22%
    14:00 +28°C° 0 mm 0 mps 743 mmHg 21%
    15:00 +30°C° 0 mm 1 mps 743 mmHg 21%
    16:00 +30°C° 0 mm 1 mps 742 mmHg 21%
    17:00 +29°C° 0 mm 2 mps 742 mmHg 21%
    18:00 +28°C° 0 mm 2 mps 743 mmHg 21%
    19:00 +27°C° 0 mm 2 mps 743 mmHg 22%
    20:00 +25°C° 0 mm 2 mps 744 mmHg 22%
    21:00 +25°C° 0 mm 3 mps 744 mmHg 24%
    22:00 +24°C° 0 mm 3 mps 744 mmHg 27%
    23:00 +24°C° 0 mm 3 mps 743 mmHg 29%

    25 January, Friday

    Time Temperature Precipitation Wind Pressure Humidity
    00:00 +23°C° 0 mm 2 mps 743 mmHg 30%
    01:00 +23°C° 0 mm 2 mps 743 mmHg 31%
    02:00 +21°C° 0 mm 2 mps 742 mmHg 32%
    03:00 +21°C° 0 mm 2 mps 742 mmHg 34%
    04:00 +20°C° 0 mm 2 mps 742 mmHg 37%
    05:00 +19°C° 0 mm 2 mps 742 mmHg 39%
    06:00 +20°C° 0 mm 3 mps 743 mmHg 42%
    07:00 +20°C° 0 mm 3 mps 744 mmHg 45%
    08:00 +21°C° 0 mm 4 mps 744 mmHg 47%
    09:00 +24°C° 0 mm 3 mps 744 mmHg 44%
    10:00 +25°C° 0 mm 3 mps 744 mmHg 41%
    11:00 +27°C° 0 mm 3 mps 744 mmHg 37%
    12:00 +28°C° 0 mm 3 mps 743 mmHg 35%
    13:00 +29°C° 0 mm 2 mps 743 mmHg 33%
    14:00 +30°C° 0 mm 2 mps 742 mmHg 30%
    15:00 +30°C° 0 mm 2 mps 742 mmHg 29%
    16:00 +30°C° 0 mm 2 mps 742 mmHg 29%
    17:00 +29°C° 0 mm 3 mps 741 mmHg 28%
    18:00 +28°C° 0 mm 3 mps 742 mmHg 32%
    19:00 +27°C° 0 mm 4 mps 743 mmHg 37%
    20:00 +25°C° 0 mm 5 mps 744 mmHg 42%
    21:00 +23°C° 0 mm 5 mps 744 mmHg 47%
    22:00 +23°C° 0 mm 6 mps 744 mmHg 53%
    23:00 +22°C° 0 mm 7 mps 744 mmHg 58%

    26 January, Saturday

    Time Temperature Precipitation Wind Pressure Humidity
    00:00 +21°C° 0 mm 7 mps 744 mmHg 59%
    01:00 +21°C° 0 mm 6 mps 743 mmHg 60%
    02:00 +20°C° 0 mm 6 mps 743 mmHg 61%
    03:00 +20°C° 0 mm 5 mps 743 mmHg 63%
    04:00 +19°C° 0 mm 5 mps 743 mmHg 64%
    05:00 +19°C° 0 mm 4 mps 744 mmHg 66%
    06:00 +19°C° 0 mm 4 mps 744 mmHg 65%
    07:00 +19°C° 0 mm 4 mps 745 mmHg 64%
    08:00 +20°C° 0 mm 4 mps 746 mmHg 64%
    09:00 +22°C° 0 mm 4 mps 746 mmHg 56%
    10:00 +25°C° 0 mm 4 mps 746 mmHg 48%
    11:00 +27°C° 0 mm 4 mps 746 mmHg 41%
    12:00 +27°C° 0 mm 4 mps 745 mmHg 37%
    13:00 +28°C° 0 mm 4 mps 744 mmHg 33%
    14:00 +29°C° 0 mm 3 mps 743 mmHg 29%
    15:00 +29°C° 0 mm 3 mps 743 mmHg 29%
    16:00 +28°C° 0 mm 3 mps 743 mmHg 28%
    17:00 +28°C° 0 mm 3 mps 743 mmHg 28%
    18:00 +27°C° 0 mm 3 mps 744 mmHg 31%
    19:00 +26°C° 0 mm 3 mps 745 mmHg 33%
    20:00 +24°C° 0 mm 3 mps 745 mmHg 35%
    21:00 +23°C° 0 mm 4 mps 745 mmHg 36%
    22:00 +22°C° 0 mm 5 mps 745 mmHg 36%
    23:00 +22°C° 0 mm 6 mps 746 mmHg 37%
    Show more